Home   Weather   41°27'N, 81°44'W   Past weeks
Flag for USA

Past Weather in 41°27'N, 81°44'W, USA — Yesterday and Last 2 Weeks

Now
39 °F

Clear.


Feels Like: 39 °F
Forecast: 69 / 41 °F
Wind: No wind

Location: Cleveland-Hopkins International Airport

Current Time: Oct 15, 2019 at 4:53:27 am

Latest Report: Oct 15, 2019 at 3:51 am


Visibility: 10 mi

Pressure: 30.15 "Hg

Humidity: 82%

Dew Point: 34 °F

Location of 41°27'N, 81°44'WLocation

Past Weather in 41°27'N, 81°44'W — Graph

°F

41°27'N, 81°44'W Temperature Yesterday

Maximum temperature yesterday: 57 °F (at 12:51 am)
Minimum temperature yesterday: 43 °F (at 10:51 pm)
Average temperature yesterday: 51 °F

High & Low Weather Summary for the Past Weeks

 TemperatureHumidityPressure
High93 °F (Oct 1, 3:51 pm)97% (Oct 3, 6:51 am)30.38 "Hg (Oct 3, 6:51 am)
Low40 °F (Oct 15, 1:51 am)21% (Oct 13, 3:51 pm)29.84 "Hg (Oct 13, 4:51 pm)
Average63 °F67%30.10 "Hg
* Reported Sep 30 2:51 am — Oct 15 2:51 am, 41°27'N, 81°44'W. Weather by CustomWeather, © 2019

Note: Actual official high and low records may vary slightly from our data, if they occured in-between our weather recording intervals... More about our weather records

Advertising

41°27'N, 81°44'W Weather History for the Previous 24 Hours

Scroll right to see more
 ConditionsComfort  
Time TempWeatherWind HumidityBarometerVisibility
2:51 am
Tue, Oct 15
41 °FClear.3 mph80%30.16 "Hg10 mi
1:51 am40 °FClear.No wind83%30.15 "Hg10 mi
12:51 am43 °FClear.3 mph76%30.15 "Hg10 mi
11:51 pm
Mon, Oct 14
43 °FClear.No wind79%30.15 "Hg10 mi
10:51 pm43 °FPassing clouds.3 mph79%30.14 "Hg10 mi
9:51 pm45 °FPassing clouds.No wind74%30.14 "Hg10 mi
8:51 pm49 °FPassing clouds.No wind61%30.12 "Hg10 mi
7:51 pm49 °FPassing clouds.3 mph61%30.11 "Hg10 mi
6:51 pm52 °FPassing clouds.6 mph55%30.11 "Hg10 mi
5:51 pm55 °FPassing clouds.10 mph49%30.09 "Hg10 mi
4:51 pm56 °FScattered clouds.8 mph47%30.08 "Hg10 mi
3:51 pm57 °FScattered clouds.9 mph47%30.07 "Hg10 mi
2:51 pm56 °FScattered clouds.10 mph47%30.07 "Hg10 mi
1:51 pm54 °FPartly sunny.13 mph49%30.07 "Hg10 mi
12:51 pm55 °FPartly sunny.15 mph49%30.08 "Hg10 mi
11:51 am53 °FPartly sunny.17 mph51%30.07 "Hg10 mi
10:51 am54 °FScattered clouds.14 mph51%30.06 "Hg10 mi
9:51 am51 °FPartly sunny.9 mph61%30.05 "Hg10 mi
8:51 am49 °FPartly sunny.9 mph64%30.03 "Hg10 mi
7:51 am47 °FPartly sunny.8 mph69%30.01 "Hg10 mi
6:51 am48 °FPassing clouds.8 mph71%29.99 "Hg10 mi
5:51 am47 °FPassing clouds.7 mph83%29.98 "Hg10 mi
4:51 am48 °FPassing clouds.5 mph77%29.95 "Hg10 mi
Weather by CustomWeather, © 2019

See weather overview